Flag for Malaysia Weather past 2 weeks in Kuching, Malaysia

Now
79 °F

Partly cloudy.


Feels Like: 82 °F
Forecast: 77 / 88 °F
Wind: 3 mph from West

Location: Kuching Airport

Current Time: Mar 27, 2015 at 3:47:17 AM

Latest Report: Mar 27, 2015 at 3:30 AM


Visibility: 4 mi

Pressure: 29.89 "Hg

Humidity: 89%

Dew point: 75 °F

Location of KuchingLocation

Historic Weather in Kuching — Graph

°F

Kuching temperature yesterday

Maximum temperature yesterday: 91 °F (at 2:00 PM)
Minimum temperature yesterday: 77 °F (at 4:30 AM)
Average temperature yesterday: 83 °F

Past Weeks' High & Low Weather Summary

 TemperatureHumidityPressure
High91 °F (Mar 26, 2:00 PM)100% (Mar 15, 11:30 AM)30.04 "Hg (Mar 15, 11:30 AM)
Low73 °F (Mar 16, 3:30 AM)49% (Mar 26, 2:30 PM)29.77 "Hg (Mar 17, 4:30 PM)
Average81 °F82%29.90 "Hg
* Reported Mar 12 3:00 AM — Mar 27 3:00 AM, Kuching, Weather by CustomWeather, © 2015

Note: Actual official high and low records may vary slightly from our data, if they occured in-between our weather recording intervals... More about our weather records

Advertising

Kuching weather history for previous 24 hours

 ConditionsComfort  
Time TempWeatherWind HumidityBarometerVisibility
3:00 AM
Fri, Mar 27
79 °FPartly cloudy.1 mph89%29.92 "Hg5 mi
2:30 AM79 °FPartly cloudy.3 mph89%29.92 "Hg5 mi
2:00 AM79 °FPartly cloudy.2 mph89%29.92 "Hg5 mi
1:30 AM79 °FPartly cloudy.No wind89%29.95 "Hg5 mi
1:00 AM79 °FPartly cloudy.1 mph89%29.95 "Hg5 mi
12:30 AM79 °FPartly cloudy.No wind94%29.95 "Hg5 mi
12:00 AM79 °FPartly cloudy.No wind94%29.98 "HgN/A
11:30 PM
Thu, Mar 26
81 °FPartly cloudy.3 mph89%29.98 "HgN/A
11:00 PM81 °FPartly cloudy.3 mph89%29.98 "HgN/A
10:30 PM81 °FPartly cloudy.5 mph89%29.98 "HgN/A
10:00 PM81 °FPartly cloudy.5 mph89%29.95 "HgN/A
9:30 PM81 °FPartly cloudy.5 mph89%29.95 "HgN/A
9:00 PM82 °FPartly cloudy.5 mph84%29.92 "Hg5 mi
8:30 PM82 °FPartly cloudy.8 mph84%29.92 "Hg5 mi
8:00 PM82 °FPartly cloudy.9 mph84%29.89 "Hg5 mi
7:30 PM82 °FPartly cloudy.9 mph84%29.89 "Hg5 mi
7:00 PM82 °FPassing clouds.9 mph79%29.86 "Hg5 mi
6:30 PM84 °FPartly sunny.12 mph74%29.86 "Hg5 mi
6:00 PM84 °FPartly sunny.12 mph74%29.83 "Hg5 mi
5:30 PM86 °FPartly sunny.13 mph70%29.83 "Hg5 mi
5:00 PM88 °FPartly sunny.10 mph66%29.83 "Hg5 mi
4:30 PM88 °FBroken clouds.12 mph62%29.83 "Hg5 mi
4:00 PM90 °FBroken clouds.10 mph59%29.83 "Hg5 mi
3:30 PM90 °FBroken clouds.8 mph59%29.83 "Hg5 mi
3:00 PM90 °FBroken clouds.8 mph55%29.83 "Hg5 mi
2:30 PM91 °FBroken clouds.8 mph49%29.86 "Hg5 mi
2:00 PM91 °FBroken clouds.9 mph52%29.86 "Hg5 mi
1:30 PM90 °FBroken clouds.10 mph55%29.89 "Hg5 mi
1:00 PM90 °FBroken clouds.9 mph59%29.89 "Hg5 mi
12:30 PM90 °FBroken clouds.10 mph59%29.92 "Hg5 mi
12:00 PM88 °FBroken clouds.13 mph62%29.92 "HgN/A
11:30 AM86 °FBroken clouds.12 mph66%29.92 "HgN/A
11:00 AM86 °FScattered showers. Broken clouds.8 mph70%29.95 "Hg5 mi
10:30 AM84 °FScattered showers. Broken clouds.13 mph74%29.95 "Hg5 mi
10:00 AM84 °FScattered showers. Broken clouds.7 mph74%29.95 "Hg5 mi
9:30 AM84 °FBroken clouds.7 mph74%29.95 "Hg5 mi
9:00 AM84 °FBroken clouds.8 mph74%29.95 "Hg5 mi
8:30 AM82 °FBroken clouds.5 mph84%29.92 "Hg4 mi
8:00 AM81 °FBroken clouds.1 mph89%29.92 "Hg4 mi
7:30 AM79 °FBroken clouds.No wind89%29.92 "Hg4 mi
7:00 AM77 °FBroken clouds.1 mph94%29.92 "HgN/A
6:30 AM79 °FPartly cloudy.2 mph89%29.89 "HgN/A
6:00 AM77 °FPartly cloudy.2 mph94%29.89 "HgN/A
5:30 AM77 °FPartly cloudy.2 mph94%29.89 "HgN/A
5:00 AM77 °FPartly cloudy.1 mph94%29.89 "HgN/A
4:30 AM77 °FPartly cloudy.No wind94%29.89 "HgN/A
4:00 AM79 °FPartly cloudy.No wind89%29.89 "HgN/A
3:30 AM79 °FPartly cloudy.No wind89%29.89 "HgN/A
3:00 AM79 °FPartly cloudy.No wind89%29.89 "HgN/A
Weather by CustomWeather, © 2015

See weather overviewHow to use our weather pages